Location: Peterborough
(44.3091°N, 78.3197°W)
Time: 16:54:31
(UTC-05:00)

Tiros 1 despin weight - Pass Details

Date: 04 December 2023
Orbit: 581 x 624 km, 48.2° (Epoch: 24 February)

Event Time Altitude Azimuth Distance (km) Brightness Sun altitude
Rises 18:38:24 0° 236° (SW) 2,798 ? -21.4°
Reaches altitude 10° 18:40:41 10° 233° (SW) 1,896 ? -21.8°
Maximum altitude 18:44:59 65° 152° (SSE) 642 ? -22.6°
Enters shadow 18:45:02 64° 146° (SSE) 642 ? -22.6°
